Weather History for Martha's Vineyard, MA

Change the Weather History Date:

Sunday, May 12, 2013

  Actual Average Record
Temperature  
Mean Temperature 58 °F -  
Max Temperature 64 °F 63 °F 81 °F (1993)
Min Temperature 52 °F 46 °F 35 °F (2000)
Degree Days  
Heating Degree Days 7    
Growing Degree Days 8 (Base 50)    
Moisture  
Dew Point 54 °F    
Average Humidity 90    
Maximum Humidity 100    
Minimum Humidity 53    
Precipitation  
Precipitation 0.23 in - - ()
Sea Level Pressure  
Sea Level Pressure 29.68 in    
Wind  
Wind Speed 11 mph (SW)    
Max Wind Speed 17 mph    
Max Gust Speed 25 mph    
Visibility 5 miles    
Events Fog , Rain    
Averages and records for this station are not official NWS values.
T = Trace of Precipitation, MM = Missing Value Source: NWS Daily Summary

Daily Weather History Graph

Daily Weather History Graph

Search for Another Location

Airport:

Trip Planner

Search our weather history database for the weather conditions in past years. The results will help you decide how hot, cold, wet, or windy it might be!

Date:

Astronomy

May. 12, 2013 Rise Set
Actual Time 5:26 AM EDT 7:51 PM EDT
Civil Twilight 4:55 AM EDT 8:23 PM EDT
Nautical Twilight 4:16 AM EDT 9:01 PM EDT
Astronomical Twilight 3:33 AM EDT 9:45 PM EDT
Moon 7:18 AM EDT (5/12) 10:16 PM EDT (5/12)
Length of Visible Light 15h 27m
Length of Day
14h 25m
Waxing Crescent, 6% of the Moon is Illuminated
May 12
Waxing Crescent
May 18
First Quarter
May 25
Full
May 31
Last Quarter
Jun 8
New

Hourly Weather History & Observations

Time (EDT) Temp. Dew Point Humidity Pressure Visibility Wind Dir Wind Speed Gust Speed Precip Events Conditions
12:53 AM 57.0 °F 55.9 °F 96% 29.74 in 5.0 mi SW 8.1 mph - 0.03 in Rain Light Rain
1:53 AM 57.0 °F 57.0 °F 100% 29.73 in 1.8 mi SSW 13.8 mph - 0.01 in   Overcast
2:17 AM 57.2 °F 57.2 °F 100% 29.71 in 3.0 mi South 15.0 mph - N/A   Overcast
2:31 AM 57.2 °F 57.2 °F 100% 29.70 in 1.8 mi South 15.0 mph - N/A   Overcast
2:43 AM 57.2 °F 57.2 °F 100% 29.70 in 0.8 mi South 11.5 mph - N/A   Overcast
2:51 AM 57.2 °F 57.2 °F 100% 29.70 in 1.0 mi South 13.8 mph - N/A   Overcast
2:53 AM 57.0 °F 57.0 °F 100% 29.70 in 1.0 mi South 12.7 mph - N/A   Overcast
3:02 AM 57.2 °F 57.2 °F 100% 29.70 in 0.8 mi SSW 12.7 mph - N/A   Mist
3:29 AM 57.2 °F 57.2 °F 100% 29.70 in 1.2 mi SSW 9.2 mph - N/A   Overcast
3:37 AM 57.2 °F 57.2 °F 100% 29.69 in 3.0 mi SSW 8.1 mph - N/A   Overcast
3:53 AM 57.9 °F 57.9 °F 100% 29.68 in 1.8 mi SW 11.5 mph - N/A   Overcast
4:35 AM 59.0 °F 59.0 °F 100% 29.68 in 3.0 mi SSW 11.5 mph - N/A   Overcast
4:53 AM 57.0 °F 57.0 °F 100% 29.70 in 7.0 mi South 6.9 mph - N/A   Overcast
5:06 AM 55.4 °F 55.4 °F 100% 29.69 in 1.8 mi SSW 10.4 mph - N/A   Overcast
5:45 AM 55.4 °F 55.4 °F 100% 29.69 in 3.0 mi SSW 12.7 mph - 0.03 in Rain Light Rain
5:53 AM 55.9 °F 55.9 °F 100% 29.68 in 3.0 mi SSW 11.5 mph - 0.03 in Rain Light Rain
6:10 AM 55.4 °F 55.4 °F 100% 29.68 in 2.0 mi South 9.2 mph - 0.00 in   Overcast
6:23 AM 55.4 °F 55.4 °F 100% 29.68 in 1.5 mi SSW 9.2 mph - 0.00 in Rain Light Rain
6:36 AM 55.4 °F 55.4 °F 100% 29.68 in 0.8 mi SSW 8.1 mph - 0.01 in Rain Light Rain
6:53 AM 55.9 °F 55.9 °F 100% 29.68 in 0.5 mi SSW 9.2 mph - 0.02 in Fog , Rain Light Rain
7:13 AM 55.4 °F 55.4 °F 100% 29.67 in 2.0 mi SSW 11.5 mph - 0.02 in Rain Light Rain
7:21 AM 55.4 °F 55.4 °F 100% 29.66 in 4.0 mi SSW 9.2 mph - 0.03 in Rain Light Rain
7:31 AM 55.4 °F 55.4 °F 100% 29.67 in 2.0 mi SW 9.2 mph - 0.03 in Rain Light Rain
7:53 AM 55.0 °F 55.0 °F 100% 29.67 in 2.0 mi SW 8.1 mph - 0.10 in Rain Rain
8:00 AM 55.4 °F 55.4 °F 100% 29.66 in 4.0 mi SW 8.1 mph - 0.01 in Rain Rain
8:53 AM 55.0 °F 55.0 °F 100% 29.66 in 7.0 mi SW 5.8 mph - 0.04 in Rain Light Rain
9:44 AM 55.4 °F 55.4 °F 100% 29.66 in 2.0 mi SW 9.2 mph - 0.00 in   Overcast
9:53 AM 55.9 °F 55.0 °F 97% 29.66 in 1.8 mi SW 5.8 mph - 0.00 in   Overcast
10:51 AM 60.8 °F 60.8 °F 100% 29.65 in 10.0 mi West 9.2 mph - 0.00 in   Mostly Cloudy
10:53 AM 61.0 °F 59.0 °F 93% 29.65 in 10.0 mi WSW 10.4 mph - 0.00 in   Mostly Cloudy
11:20 AM 62.6 °F 59.0 °F 88% 29.65 in 10.0 mi West 8.1 mph - N/A   Scattered Clouds
11:53 AM 63.0 °F 57.9 °F 84% 29.65 in 10.0 mi SSW 9.2 mph - N/A   Scattered Clouds
12:53 PM 60.1 °F 55.9 °F 86% 29.66 in 9.0 mi SW 11.5 mph - N/A   Scattered Clouds
1:53 PM 61.0 °F 55.9 °F 83% 29.64 in 10.0 mi SW 9.2 mph - N/A   Clear
2:53 PM 63.0 °F 51.1 °F 65% 29.64 in 10.0 mi SW 15.0 mph 24.2 mph N/A   Clear
3:53 PM 62.1 °F 51.1 °F 67% 29.63 in 10.0 mi SW 12.7 mph 23.0 mph N/A   Clear
4:53 PM 64.0 °F 48.9 °F 58% 29.64 in 10.0 mi SW 17.3 mph 25.3 mph N/A   Clear
5:53 PM 61.0 °F 48.0 °F 62% 29.65 in 10.0 mi SW 13.8 mph - N/A   Clear
6:53 PM 57.9 °F 48.0 °F 70% 29.67 in 10.0 mi SW 16.1 mph - N/A   Clear
7:53 PM 57.0 °F 45.0 °F 64% 29.70 in 10.0 mi WSW 11.5 mph 20.7 mph N/A   Clear
8:53 PM 54.0 °F 45.0 °F 72% 29.72 in 10.0 mi West 4.6 mph - N/A   Partly Cloudy
9:53 PM 52.0 °F 46.9 °F 83% 29.75 in 10.0 mi NW 4.6 mph - N/A   Partly Cloudy
10:53 PM 55.0 °F 37.9 °F 53% 29.79 in 10.0 mi NW 11.5 mph - N/A   Clear
11:53 PM 52.0 °F 37.0 °F 57% 29.82 in 10.0 mi NW 3.5 mph - N/A   Partly Cloudy